Weather reports worldwide

Advertisment
Safford, az, United States of America (2074852): temperature & dewpoint: 16.07.2019 08:00:00 - 22.07.2019 08:00:00 (MST)Safford, az, United States of America (2074852): wind speed & gusts: 16.07.2019 08:00:00 - 22.07.2019 08:00:00 (MST)Safford, az, United States of America (2074852): wind direction: 16.07.2019 08:00:00 - 22.07.2019 08:00:00 (MST)Safford, az, United States of America (2074852): reduced air pressure: 16.07.2019 08:00:00 - 22.07.2019 08:00:00 (MST)Safford, az, United States of America (2074852): visibility: 16.07.2019 08:00:00 - 22.07.2019 08:00:00 (MST)Safford, az, United States of America (2074852): precipitation: 16.07.2019 08:00:00 - 22.07.2019 08:00:00 (MST)
Date & Time tt [°C] td [°C] ff [km/h] ff [kn] fx [km/h] fx [kn] dd ppp [hPa] vv [km] rr [mm]
22.07.2019 08:00:00 31,7 13,9 28 15 - - NW 1011,4 16 -
22.07.2019 07:00:00 30,6 13,9 24 13 - - WNW 1010,9 16 -
22.07.2019 06:00:00 29,4 12,8 16 9 - - NW 1010,1 16 -
22.07.2019 05:00:00 30,0 12,2 16 9 - - NNW 1009,4 16 -
22.07.2019 04:00:00 30,0 11,1 11 6 - - WNW 1008,5 16 -
22.07.2019 03:00:00 30,6 10,0 18 10 - - NNW 1007,7 16 -
22.07.2019 02:00:00 28,9 9,4 13 7 - - NW 1008,0 16 -
22.07.2019 01:00:00 30,6 8,9 11 6 - - WNW 1008,2 16 -
22.07.2019 00:00:00 32,8 8,3 22 12 - - NW 1007,2 16 -
21.07.2019 23:00:00 33,3 8,9 29 16 - - NW 1007,0 16 -
21.07.2019 22:00:00 33,3 8,3 29 16 50 27 NW 1005,9 16 -
21.07.2019 21:00:00 33,9 8,9 29 16 - - NW 1005,7 16 -
21.07.2019 20:00:00 35,6 8,9 28 15 - - WNW 1005,1 16 -
21.07.2019 19:00:00 37,8 8,3 29 16 50 27 WNW 1004,4 16 -
21.07.2019 18:00:00 40,0 4,4 34 18 - - WNW 1003,7 16 -
21.07.2019 17:00:00 40,6 3,3 31 17 - - W 1004,2 16 -
21.07.2019 16:00:00 41,7 2,8 34 18 - - WNW 1005,2 16 -
21.07.2019 15:00:00 41,7 2,2 29 16 48 26 W 1006,0 16 -
21.07.2019 14:00:00 41,1 2,8 28 15 - - W 1006,7 16 -
21.07.2019 13:00:00 40,0 2,2 28 15 48 26 WNW 1007,4 16 -
21.07.2019 12:00:00 38,3 5,0 31 17 50 27 WNW 1008,1 16 -
21.07.2019 11:00:00 36,7 7,2 29 16 - - WNW 1008,9 16 -
21.07.2019 10:00:00 35,0 9,4 31 17 - - WNW 1009,4 16 -
21.07.2019 09:00:00 32,8 8,9 26 14 - - WNW 1009,8 16 -
21.07.2019 08:00:00 30,6 8,3 26 14 - - NW 1009,8 16 -
21.07.2019 07:00:00 29,4 5,0 16 9 - - NNW 1009,2 16 -
21.07.2019 06:00:00 28,3 2,8 18 10 - - NW 1008,3 16 -
21.07.2019 05:00:00 27,2 2,2 16 9 - - NW 1007,5 16 -
21.07.2019 04:00:00 26,1 2,8 16 9 - - WNW 1007,1 16 -
21.07.2019 03:00:00 29,4 2,2 16 9 - - NW 1006,6 16 -
21.07.2019 02:00:00 29,4 2,2 18 10 - - WNW 1006,4 16 -
21.07.2019 01:00:00 30,6 1,7 18 10 - - WNW 1006,2 16 -
21.07.2019 00:00:00 32,2 1,7 24 13 - - NW 1005,8 16 -
20.07.2019 23:00:00 32,2 2,8 22 12 - - NW 1005,8 16 -
20.07.2019 22:00:00 33,3 3,3 26 14 - - NW 1006,0 16 -
20.07.2019 21:00:00 33,3 3,9 22 12 - - NW 1005,1 16 -
20.07.2019 20:00:00 35,0 3,3 24 13 - - WNW 1003,7 16 -
20.07.2019 19:00:00 37,8 2,8 26 14 - - WNW 1003,2 16 -
20.07.2019 18:00:00 39,4 2,2 29 16 - - W 1003,1 16 -
20.07.2019 17:00:00 40,6 1,7 28 15 - - NW 1003,2 16 -
20.07.2019 16:00:00 41,1 0,6 26 14 - - WNW 1003,8 16 -
20.07.2019 15:00:00 40,6 0,6 22 12 - - W 1004,6 16 -
20.07.2019 14:00:00 40,0 -0,6 26 14 50 27 W 1005,4 16 -
20.07.2019 13:00:00 39,4 -1,1 34 18 48 26 W 1006,2 16 -
20.07.2019 12:00:00 38,3 -1,1 26 14 - - WNW 1006,9 16 -
20.07.2019 11:00:00 37,2 -1,1 26 14 - - W 1007,4 16 -
20.07.2019 10:00:00 35,6 0,6 24 13 - - W 1007,9 16 -
20.07.2019 09:00:00 33,9 0,0 22 12 - - WNW 1008,4 16 -
20.07.2019 08:00:00 31,1 2,2 11 6 - - NW 1008,5 16 -
20.07.2019 07:00:00 27,8 3,3 13 7 - - WNW 1008,2 16 -
20.07.2019 06:00:00 25,6 2,8 9 5 - - NW 1007,5 16 -
20.07.2019 05:00:00 25,6 3,3 9 5 - - NW 1007,0 16 -
20.07.2019 04:00:00 25,0 3,9 9 5 - - WNW 1006,6 16 -
20.07.2019 03:00:00 28,3 3,3 13 7 - - NW 1006,0 16 -
20.07.2019 02:00:00 29,4 3,3 15 8 - - NW 1006,1 16 -
20.07.2019 01:00:00 30,0 3,3 21 11 - - WNW 1006,0 16 -
20.07.2019 00:00:00 31,7 3,9 22 12 - - NW 1005,8 16 -
19.07.2019 23:00:00 32,2 5,0 24 13 - - WNW 1005,9 16 -
19.07.2019 22:00:00 33,3 5,0 26 14 - - NW 1005,5 16 -
19.07.2019 21:00:00 33,9 7,2 24 13 - - NW 1004,8 16 -
19.07.2019 20:00:00 34,4 7,8 26 14 - - WNW 1004,2 16 -
19.07.2019 19:00:00 36,7 6,1 29 16 - - WNW 1003,7 16 -
19.07.2019 18:00:00 38,3 5,0 31 17 52 28 WNW 1003,0 16 -
19.07.2019 17:00:00 39,4 5,0 37 20 50 27 WNW 1002,9 16 -
19.07.2019 16:00:00 40,6 3,3 21 11 55 30 WNW 1003,0 16 -
19.07.2019 15:00:00 41,1 4,4 35 19 52 28 W 1003,4 16 -
19.07.2019 14:00:00 40,6 3,3 31 17 48 26 W 1004,2 16 -
19.07.2019 13:00:00 38,9 3,9 21 11 54 29 NW 1005,4 16 -
19.07.2019 12:00:00 37,8 2,2 31 17 50 27 WNW 1006,4 16 -
19.07.2019 11:00:00 36,1 5,6 29 16 - - W 1007,3 16 -
19.07.2019 10:00:00 34,4 8,9 21 11 - - W 1007,9 16 -
19.07.2019 09:00:00 32,2 11,7 18 10 - - NW 1008,6 16 -
19.07.2019 08:00:00 28,9 13,3 5 3 - - SSW 1009,1 16 -
19.07.2019 07:00:00 26,7 14,4 9 5 - - S 1008,7 16 -
19.07.2019 06:00:00 26,7 13,9 0 0 - - N 1008,1 16 -
19.07.2019 05:00:00 26,7 13,3 5 3 - - E 1007,0 16 -
19.07.2019 04:00:00 26,7 14,4 16 9 - - E 1006,8 16 -
19.07.2019 03:00:00 26,1 14,4 15 8 - - E 1007,2 16 -
19.07.2019 02:00:00 27,8 13,3 15 8 - - ESE 1007,2 16 -
19.07.2019 01:00:00 28,3 13,3 13 7 - - SSE 1007,3 16 -
19.07.2019 00:00:00 30,0 9,4 9 5 - - - 1006,6 16 -
18.07.2019 23:00:00 28,9 12,8 13 7 - - E 1006,8 16 -
18.07.2019 22:00:00 29,4 11,1 13 7 - - ENE 1006,5 16 -
18.07.2019 21:00:00 30,6 12,8 5 3 - - N 1006,4 16 -
18.07.2019 20:00:00 30,6 12,8 8 4 - - SE 1007,0 16 -
18.07.2019 19:00:00 30,6 13,9 24 13 57 31 S 1007,5 16 -
18.07.2019 18:00:00 32,8 12,2 41 22 76 41 ENE 1005,8 16 -
18.07.2019 17:00:00 40,6 7,8 21 11 - - WNW 1003,6 16 -
18.07.2019 16:00:00 41,1 5,0 26 14 59 32 WNW 1003,6 16 -
18.07.2019 15:00:00 40,0 5,6 29 16 - - WNW 1004,4 16 -
18.07.2019 14:00:00 40,0 8,3 31 17 52 28 NW 1005,5 16 -
18.07.2019 13:00:00 38,3 10,6 35 19 50 27 WNW 1006,7 16 -
18.07.2019 12:00:00 37,2 11,7 29 16 48 26 NW 1007,4 16 -
18.07.2019 11:00:00 35,6 12,8 34 18 - - W 1008,5 16 -
18.07.2019 10:00:00 33,9 12,2 29 16 - - W 1009,4 16 -
18.07.2019 09:00:00 32,2 12,8 26 14 - - WNW 1010,1 16 -
18.07.2019 08:00:00 30,0 12,8 24 13 - - NW 1010,5 16 -
18.07.2019 07:00:00 29,4 12,8 24 13 - - NW 1010,0 16 -
18.07.2019 06:00:00 27,2 13,3 13 7 - - NW 1009,9 16 -
18.07.2019 05:00:00 27,2 13,9 18 10 - - NW 1009,6 16 -
18.07.2019 04:00:00 27,2 12,8 16 9 - - NW 1009,0 16 -
18.07.2019 03:00:00 27,8 12,8 16 9 - - WNW 1008,6 16 -
18.07.2019 02:00:00 28,9 12,2 21 11 - - WNW 1008,2 16 -
18.07.2019 01:00:00 30,0 11,7 18 10 - - NW 1008,4 16 -
18.07.2019 00:00:00 30,6 11,7 22 12 - - NW 1008,4 16 -
17.07.2019 23:00:00 31,1 11,1 24 13 - - NW 1008,4 16 -
17.07.2019 22:00:00 31,7 10,6 22 12 - - NW 1008,5 16 -
17.07.2019 21:00:00 32,2 9,4 21 11 - - NW 1008,0 16 -
17.07.2019 20:00:00 33,9 9,4 24 13 - - WNW 1007,0 16 -
17.07.2019 19:00:00 35,6 9,4 28 15 - - WNW 1006,8 16 -
17.07.2019 18:00:00 36,7 10,0 34 18 48 26 NW 1006,3 16 -
17.07.2019 17:00:00 38,3 10,6 31 17 50 27 WNW 1006,4 16 -
17.07.2019 16:00:00 37,8 10,6 29 16 50 27 WNW 1007,0 16 -
17.07.2019 15:00:00 38,3 10,6 34 18 63 34 WNW 1007,7 16 -
17.07.2019 14:00:00 37,8 10,0 26 14 - - NNW 1008,9 16 -
17.07.2019 13:00:00 36,7 10,0 18 10 48 26 NW 1009,7 16 -
17.07.2019 12:00:00 36,7 10,0 26 14 - - WNW 1010,4 16 -
17.07.2019 11:00:00 36,1 10,6 31 17 - - NW 1010,8 16 -
17.07.2019 10:00:00 33,9 11,1 21 11 - - WNW 1011,2 16 -
17.07.2019 09:00:00 32,2 12,2 9 5 - - E 1011,5 16 -
17.07.2019 08:00:00 30,6 12,8 8 4 - - - 1011,5 16 -
17.07.2019 07:00:00 27,8 13,3 18 10 - - SE 1011,0 16 -
17.07.2019 06:00:00 23,9 13,9 0 0 - - N 1010,5 16 -
17.07.2019 05:00:00 23,3 13,3 8 4 - - NNW 1008,7 16 -
17.07.2019 04:00:00 25,6 13,3 0 0 - - N 1008,0 16 -
17.07.2019 03:00:00 25,0 14,4 5 3 - - E 1007,9 16 -
17.07.2019 02:00:00 26,7 14,4 9 5 - - E 1007,4 16 -
17.07.2019 01:00:00 27,8 13,3 13 7 - - E 1007,8 16 -
17.07.2019 00:00:00 28,3 13,3 9 5 - - E 1008,5 16 -
16.07.2019 23:00:00 28,9 13,3 13 7 - - SSE 1008,7 16 -
16.07.2019 22:00:00 30,0 12,8 13 7 - - E 1008,7 16 -
16.07.2019 21:00:00 31,1 13,3 21 11 57 31 E 1008,1 16 -
16.07.2019 20:00:00 31,7 12,8 31 17 57 31 E 1006,9 16 0,0
16.07.2019 19:00:00 33,3 10,6 34 18 50 27 ESE 1006,3 16 0,0
16.07.2019 18:00:00 37,2 7,2 31 17 52 28 WNW 1004,5 16 -
16.07.2019 17:00:00 41,7 5,6 26 14 - - WNW 1003,6 16 -
16.07.2019 16:00:00 42,2 6,1 26 14 - - W 1003,7 16 -
16.07.2019 15:00:00 40,6 7,2 21 11 - - W 1004,5 16 -
16.07.2019 14:00:00 41,7 7,2 22 12 - - W 1004,9 16 -
16.07.2019 13:00:00 42,2 6,1 22 12 - - NW 1005,3 16 -
16.07.2019 12:00:00 41,1 7,2 28 15 - - WNW 1006,2 16 -
16.07.2019 11:00:00 37,8 8,3 0 0 - - N 1007,1 16 -
16.07.2019 10:00:00 36,1 9,4 - - - - - 1007,6 16 -
16.07.2019 09:00:00 34,4 10,0 5 3 - - SW 1007,8 16 -
16.07.2019 08:00:00 32,2 10,0 5 3 - - - 1008,1 16 -

tt = temperature
td = dewpoint
ff = wind speed
fx = gusts
dd = wind direction
ppp = reduced air pressure
vv = visibility
rr = precipitation

Next stations